Location: Astronight Observatory
(42.6003°N, 71.2981°W)
Time: 07:06:15
(UTC-04:00)

Daily predictions for brighter satellites

Satellite Brightness Start Highest point End
(mag) Time Altitude Azimuth Time Altitude Azimuth Time Altitude Azimuth
CENTAUR R/B 3.4 20:32:18 10° SSE 20:37:03 26° ESE 20:42:18 10° NE
Cosmos 2082 Rocket 4.2 20:32:23 10° WSW 20:37:33 35° WNW 20:42:47 10° N
Cosmos 2322 Rocket 2.7 20:32:57 10° NNW 20:38:22 46° ENE 20:43:44 10° SE
NOAA 11 4.3 20:33:47 10° SSE 20:39:11 63° ENE 20:44:34 10° N
ARGOS 4.1 20:35:02 10° SE 20:39:43 31° ENE 20:44:26 10° N
Cosmos 1725 Rocket 4.0 20:35:45 10° S 20:41:55 87° E 20:48:11 10° N
Tsikada Rocket 4.1 20:35:55 10° N 20:42:23 80° E 20:48:47 10° S
H-2A R/B 3.2 20:40:00 10° ESE 20:44:00 25° ENE 20:48:07 10° N
Cosmos 1455 Rocket 4.5 20:42:50 10° NNE 20:46:17 22° ENE 20:49:43 10° SE
ATLAS CENTAUR R/B 4.1 20:40:22 10° SSW 20:46:22 64° ESE 21:04:26 10° NE
SL-16 R/B 2.5 20:42:12 10° NNW 20:47:49 58° ENE 20:53:23 10° SE
DNEPR-1 R/B 4.1 20:43:41 10° SW 20:47:54 66° NW 20:52:44 10° NNE
Cosmos 2208 Rocket 4.0 20:42:50 10° SSW 20:48:00 78° ESE 20:53:11 10° NNE
USA 186 3.1 20:45:00 10° S 20:48:04 41° W 20:51:18 10° NNW
Tiangong 2 1.1 20:45:09 10° WSW 20:48:17 65° SSE 20:51:25 10° E
ATLAS 3B R/B 3.3 20:43:31 10° SW 20:50:40 68° NW 20:57:34 10° NNE
Cosmos 990 Rocket 4.4 20:47:18 10° N 20:52:23 50° ENE 20:57:27 10° SE
Cosmos 1340 Rocket 4.2 20:50:18 10° SE 20:53:22 21° E 20:56:27 10° NE
Cosmos 1378 Rocket 3.8 20:49:42 10° SSW 20:54:00 75° W 20:58:20 10° N
Cosmos 1975 Rocket 3.2 20:53:36 10° S 20:57:49 55° E 21:02:03 10° NNE
Okean 1 Rocket 3.5 20:54:25 10° NNW 20:58:43 63° W 21:03:00 10° S
YAOGAN 6 4.4 20:57:43 10° SSW 21:01:03 32° W 21:04:24 10° NNW
Shenzhou-11 Module 1.9 20:58:35 10° W 21:01:34 86° S 21:04:29 10° E
ELECTRON R/B 4.2 21:00:27 10° N 21:02:53 78° E 21:05:22 10° S
Cosmos 1242 Rocket 2.5 21:01:40 10° N 21:05:21 77° E 21:08:56 10° SSE
Aureole 2 Rocket 3.4 21:05:42 10° N 21:08:13 25° ENE 21:09:57 14° ESE
CZ-4C R/B 4.2 21:04:30 10° NNW 21:10:22 28° NE 21:16:51 10° E
BREEZE-M R/B 3.2 21:08:02 10° WSW 21:12:25 55° NNW 21:15:06 10° NE
CZ-4B DEB 4.4 21:09:42 10° SSE 21:13:10 85° E 21:16:41 10° N
Cosmos 1544 Rocket 4.1 21:09:33 10° N 21:13:47 43° ENE 21:17:19 14° SE
Cosmos 2150 Rocket 4.3 21:08:36 10° NNW 21:13:54 55° ENE 21:18:20 14° SE
Cosmos 2084 3.4 21:12:17 10° SW 21:16:37 89° SE 21:20:44 10° NE
Cosmos 2233 Rocket 4.2 21:14:39 10° SSW 21:20:47 75° W 21:27:02 10° N
Cosmos 1975 3.8 21:17:42 10° NNW 21:21:35 46° W 21:25:25 10° SSW
SL-08 RB Rocket 3.9 21:20:48 15° SSE 21:24:28 56° ENE 21:28:58 10° N
SJ 16-02 2.7 21:21:50 10° N 21:25:38 27° ENE 21:28:17 16° ESE
Resurs 01 Rocket 3.4 21:24:14 10° SSW 21:28:07 30° W 21:32:00 10° NW
Cosmos 2360 Rocket 2.6 21:22:41 10° NNW 21:28:12 51° ENE 21:32:17 18° SE
Meteor 1-19 Rocket 4.4 21:22:17 10° SSW 21:28:12 83° W 21:34:09 10° N
Spot 2 Rocket 4.4 21:24:04 10° S 21:28:53 45° W 21:33:44 10° NNW
Cosmos 1980 Rocket 4.3 21:26:12 10° NW 21:30:25 22° W 21:34:36 10° SSW
Cosmos 1536 Rocket 4.2 21:28:12 16° SSE 21:31:14 39° E 21:35:23 10° NNE
Cosmos 540 Rocket 4.0 21:27:11 11° SSE 21:31:38 38° ESE 21:36:24 10° NE
Cosmos 2219 Rocket 4.0 21:27:55 10° N 21:31:48 19° NE 21:35:39 10° E
ATLAS CENTAUR R/B 4.3 21:31:26 10° W 21:33:13 12° WSW 21:35:01 10° SW
Cosmos 1937 Rocket 3.6 21:29:05 10° NNW 21:34:12 71° WSW 21:38:38 14° S
Cosmos 2298 Rocket 4.0 21:29:26 10° NNW 21:34:46 89° WSW 21:38:58 17° SSE
Cosmos 1666 4.1 21:31:17 10° NNW 21:34:52 36° W 21:38:25 10° SSW
BREEZE-M DEB (TANK) 3.7 21:34:16 10° WSW 21:35:13 12° SW 21:36:03 10° SSW
Helios 1B rocket 3.8 21:33:20 10° NE 21:36:35 22° E 21:37:37 20° ESE
Cosmos 1763 Rocket 3.7 21:34:10 10° SSW 21:39:28 75° WNW 21:44:47 10° NNE
Meteor 2-9 Rocket 4.2 21:36:03 10° NNW 21:41:25 82° W 21:46:08 14° S
Cosmos 841 Rocket 3.5 21:39:46 10° SSW 21:45:01 87° ESE 21:50:20 10° NNE
USA 32 4.0 21:41:30 10° N 21:46:47 86° W 21:51:10 15° S
MetOp-A 4.4 21:44:35 13° S 21:49:18 68° WSW 21:54:40 10° NNW
SPOT 5 3.0 21:49:27 25° SE 21:51:46 51° ENE 21:56:13 10° N
Meteor 1-23 Rocket 4.2 21:48:45 14° S 21:53:33 68° E 21:59:04 10° NNE
Cosmos 2333 Rocket 3.7 21:49:30 10° N 21:54:05 24° NE 21:57:38 14° E
USA 234 3.5 21:49:07 10° NE 21:55:39 73° NW 22:02:12 10° WSW
Cosmos 372 Rocket 4.3 21:51:26 10° N 21:56:26 50° ENE 21:59:02 26° SE
Terra 2.9 21:55:07 22° ESE 21:57:13 31° ENE 22:01:23 10° N
COSMOS 2428 3.6 21:52:10 10° N 21:57:27 37° ENE 22:00:36 21° ESE
CZ-2C R/B 4.3 22:00:16 20° ESE 22:02:54 30° ENE 22:07:43 10° N
CARTOSAT-1 4.4 22:02:12 27° ESE 22:03:47 37° ENE 22:07:46 10° N
Cosmos 1513 Rocket 4.4 21:59:23 11° S 22:05:14 88° W 22:11:28 10° N
Cosmos 1833 4.2 21:59:49 10° SSW 22:05:34 84° WNW 22:11:18 10° NNE
Lacrosse 5 rocket 1.4 22:01:24 10° NW 22:05:44 75° NE 22:07:25 35° ESE
Meteor 2-4 Rocket 4.3 22:00:33 10° SSW 22:05:52 56° WNW 22:11:24 10° N
Cosmos 2034 Rocket 3.9 22:03:34 16° S 22:08:32 80° E 22:14:43 10° N
Spot 1 4.5 22:09:00 33° ESE 22:10:18 44° ENE 22:14:11 10° N
ERS-1 Rocket 3.3 22:07:46 21° S 22:11:03 63° WSW 22:16:04 10° NNW
Cosmos 1464 Rocket 4.3 22:05:46 10° SSW 22:12:07 72° W 22:18:30 10° N
Abrixas rocket 3.9 22:11:49 10° W 22:14:48 34° NNW 22:17:48 10° NE
Cosmos 1025 Rocket 3.2 22:14:39 38° SSE 22:15:58 53° E 22:20:15 10° NNE
ISS -0.9 22:13:47 10° WNW 22:16:13 19° N 22:18:37 10° NE
Cosmos 2297 Rocket 4.2 22:17:57 12° E 22:17:57 12° E 22:19:22 10° ENE
USA 245 3.9 22:16:24 28° SSW 22:17:58 49° W 22:22:11 10° NNW
SPOT 1/Viking Rocket 3.5 22:16:49 30° SSE 22:19:29 88° WSW 22:24:40 10° NNW
Cosmos 1515 4.4 22:16:59 18° SSW 22:19:37 51° W 22:23:22 10° N
ARGOS 4.4 22:15:18 12° SSW 22:19:52 36° W 22:24:50 10° NNW
Cosmos 2227 Rocket 4.0 22:21:07 15° E 22:21:07 15° E 22:23:41 10° ENE
Cosmos 2322 3.7 22:15:12 10° NNW 22:20:58 85° WSW 22:23:44 32° SSE
Cosmos 2322 Rocket 3.8 22:17:32 10° NW 22:22:06 26° WSW 22:26:18 11° SSW
H-2A R/B 3.0 22:19:42 16° SSW 22:23:14 39° W 22:27:56 10° NNW
Tiangong 2 0.9 22:21:51 10° W 22:25:00 85° N 22:25:10 78° ENE
Cosmos 2237 Rocket 3.8 22:21:39 10° N 22:26:14 24° NE 22:29:13 16° E
CENTAUR R/B 3.1 22:21:06 10° SW 22:27:04 60° NW 22:33:58 10° NNE
Meteor 1-29 2.8 22:27:52 10° NNE 22:31:21 68° E 22:31:30 67° ESE
SL-16 R/B 4.2 22:27:20 10° NW 22:31:25 21° W 22:35:30 10° SSW
Cosmos 1125 Rocket 3.4 22:26:24 10° NNW 22:31:42 87° WSW 22:33:42 39° SSE
Cosmos 1066 Rocket 4.1 22:30:19 36° SSE 22:32:27 65° E 22:37:51 10° NNE
YAOGAN 11 4.5 22:31:35 41° ESE 22:32:43 53° ENE 22:37:08 10° N
Cosmos 1634 Rocket 4.2 22:33:15 34° SSE 22:35:46 54° E 22:41:55 10° NNE
Shenzhou-11 Module 4.0 22:34:48 10° W 22:36:04 20° WSW 22:36:04 20° WSW
Helios 1A 4.0 22:41:57 28° SW 22:43:27 38° W 22:47:22 10° NNW
Meteor 1-22 Rocket 4.2 22:44:44 10° N 22:50:02 58° ENE 22:51:22 45° SE
Cosmos 2219 3.2 22:48:54 40° S 22:50:55 65° ESE 22:56:37 10° NNE
Okean 2 4.3 22:50:54 27° SW 22:52:42 44° WNW 22:56:44 10° N
Cosmos 1766 3.6 22:51:27 10° N 22:55:20 51° ENE 22:55:20 51° ENE
Cosmos 1892 Rocket 3.8 22:57:19 49° E 22:57:19 49° E 23:01:29 10° NNE
Intercosmos 25 4.1 22:58:18 41° E 22:58:18 41° E 23:01:24 10° NNE
Nimbus 7 Rocket 4.3 22:52:48 10° NNE 22:58:44 85° ESE 23:01:14 37° SSW
CZ-4C R/B 2.9 22:52:32 10° NW 22:59:48 89° SW 23:03:19 38° SSE
SAR-Lupe-4 4.4 23:00:31 40° NE 23:00:31 40° NE 23:03:34 10° N
SJ 16-02 2.7 23:00:21 10° NW 23:04:11 29° W 23:05:18 25° SW
Cosmos 1356 Rocket 4.5 23:03:27 29° SW 23:05:06 42° WNW 23:09:13 10° N
Cosmos 1544 3.3 23:01:36 10° NNW 23:05:13 64° W 23:05:13 64° W
Okean 1-7 Rocket 3.7 23:05:55 56° SSW 23:06:48 77° W 23:11:22 10° N
COSMOS 2455 3.5 23:07:46 36° ESE 23:07:46 36° ESE 23:13:13 10° NE
Cosmos 2360 Rocket 3.8 23:07:25 10° NW 23:11:49 24° WSW 23:14:04 18° SW
Helios 1B rocket 4.0 23:08:13 10° N 23:11:53 31° WNW 23:13:58 20° WSW
Cosmos 2228 3.0 23:08:40 10° N 23:12:56 65° E 23:12:59 65° E
CZ-2C R/B 2.6 23:07:44 10° NNE 23:13:24 77° ESE 23:14:47 52° S
Cosmos 2219 Rocket 2.1 23:10:47 10° NNW 23:16:23 76° WSW 23:17:36 55° S
Cosmos 1726 Rocket 3.4 23:12:39 10° N 23:17:05 86° W 23:17:20 79° SSW
Cosmos 1092 Rocket 4.5 23:11:57 10° NNW 23:18:07 55° W 23:20:43 34° SSW
Cosmos 1842 3.5 23:31:21 66° N 23:31:21 66° N 23:34:45 10° N
Cosmos 1805 3.5 23:27:32 10° N 23:31:01 68° NNW 23:31:01 68° NNW
Cosmos 2058 Rocket 3.0 23:26:57 10° N 23:31:29 86° W 23:31:33 86° SW
Cosmos 1818 4.5 23:33:23 34° E 23:33:23 34° E 23:37:26 10° NE
Iridium 4 Rocket 3.8 23:33:13 56° SE 23:34:06 63° E 23:39:57 10° N
Terra 3.1 23:33:59 27° WSW 23:34:55 29° W 23:39:05 10° NW
Cosmos 1470 4.1 23:32:38 10° N 23:35:32 31° NE 23:35:32 31° NE
Cosmos 2333 Rocket 2.4 23:33:10 10° NNW 23:38:44 57° WSW 23:39:38 51° SW
COSMOS 2428 3.7 23:36:34 10° NW 23:41:36 33° WSW 23:42:36 31° SW
CZ-2C R/B 4.0 23:41:20 34° SW 23:42:34 39° W 23:47:47 10° NNW
SL-16 R/B 3.2 23:37:52 10° N 23:43:09 38° ENE 23:44:52 31° E
Cosmos 489 Rocket 4.4 23:37:55 10° NNW 23:44:18 80° WSW 23:45:42 57° S
Lacrosse 5 rocket 3.8 23:42:08 10° W 23:43:05 13° W 23:43:05 13° W
CZ-4C R/B 4.5 23:44:28 38° ENE 23:44:30 38° ENE 23:48:38 10° N
NOSS 0 Rocket 4.0 23:39:24 10° NNW 23:45:36 67° WSW 23:46:47 55° SSW
ALOS 2 3.3 23:46:19 43° ENE 23:46:19 43° ENE 23:50:25 10° N
Cosmos 2026 Rocket 4.5 23:41:45 10° NNW 23:47:40 50° W 23:49:22 39° SW
SL-19 R/B 4.3 23:44:15 10° NNE 23:50:27 76° ESE 23:51:28 61° SSE
Cosmos 1655 Rocket 4.1 23:45:12 10° NNW 23:51:34 73° W 23:53:03 53° SSW
Abrixas rocket 4.3 23:48:51 10° WNW 23:51:14 28° NNW 23:51:14 28° NNW
Cosmos 2279 Rocket 4.1 23:50:12 45° SW 23:52:02 67° W 23:58:14 10° N
Cosmos 1953 3.0 23:48:51 10° N 23:52:04 50° NNE 23:52:04 50° NNE
Cosmos 1980 3.6 23:47:13 10° NNW 23:52:53 73° WSW 23:53:29 66° SSW
ISS -1.0 23:51:09 10° NW 23:53:34 19° N 23:55:04 14° NE
